Regional Weather Roundup
Issued by NWS Portland, ME

Home | Current Version | Previous Version | Text Only | Print | Product List | Glossary On
Versions: 1 2 3 4 5 6 7 8 9 10 11 12 13 14 15 16 17 18 19 20 21 22 23 24 25 26 27 28 29 30 31 32 33 34 35 36 37 38 39 40 41 42 43 44 45 46 47 48 49 50
000
ASUS41 KGYX 270410
RWRGYX
WEATHER ROUNDUP FOR MAINE AND NEW HAMPSHIRE
NATIONAL WEATHER SERVICE GRAY ME
1200 AM EDT SAT MAY 27 2017

MEZ002-005-006-010-012-015-018-020-021-024-026-027-029-270500-
MAINE

CITY           SKY/WX    TMP DP  RH WIND       PRES   REMARKS
PORTLAND       CLOUDY    52  47  83 N5        29.73R
SANFORD        CLOUDY    51  48  89 W3        29.74S
BAR HARBOR     CLOUDY    48  46  93 N7        29.67R
WISCASSET      CLOUDY    51  48  89 CALM      29.73R
ROCKLAND       CLOUDY    50  46  86 VRB3      29.70R
FRYEBURG       CLOUDY    50  49  96 CALM      29.75R
LEWISTONAUBURN CLOUDY    50  48  93 N8        29.73R
AUGUSTA        CLOUDY    49  45  86 N9        29.73R
WATERVILLE     CLOUDY    49  46  90 N7        29.70R
BANGOR         CLOUDY    49  47  93 N10       29.70R
GREENVILLE       N/A     46  45  96 N15G22    29.70R
MILLINOCKET    CLOUDY    48  47  96 N9        29.72R
HOULTON        CLOUDY    47  47 100 NE10      29.69S
PRESQUE ISLE   CLOUDY    47  43  86 N8        29.75S
FRENCHVILLE    PTCLDY    45  39  79 NE8G17    29.76R
CARIBOU        CLOUDY    48  43  82 N12       29.73S
$$

NHZ002-005-008-009-011-012-014-270500-
NEW HAMPSHIRE

CITY           SKY/WX    TMP DP  RH WIND       PRES   REMARKS
PORTSMOUTH     CLOUDY    53  49  88 W5        29.74R
ROCHESTER      CLOUDY    52  48  86 W3        29.74R
NASHUA         CLOUDY    54  53  97 CALM      29.76R
MANCHESTER     LGT RAIN  54  51  90 NW3       29.75R FOG
CONCORD        CLOUDY    53  51  93 CALM      29.76R
LACONIA        CLOUDY    52  51  97 CALM      29.75S
PLYMOUTH       CLOUDY    53  47  81 W3        29.75R
BERLIN         CLOUDY    50  46  86 CALM      29.75S
WHITEFIELD     CLOUDY    50  44  80 CALM      29.76R
JAFFREY        CLOUDY    53  53 100 CALM      29.77R
KEENE          CLOUDY    54  52  93 N5        29.77R
LEBANON        CLOUDY    53  49  86 N5        29.77R
MT WASHINGTON  FOG       34  34 100 N30         N/A  VSB 1/8
$$

VTZ005-007-008-270500-
VERMONT

CITY           SKY/WX    TMP DP  RH WIND       PRES   REMARKS
ST JOHNSBURY     N/A     51  47  86 MISG      29.76R
MONTPELIER     CLOUDY    49  48  97 W5        29.83R
BURLINGTON     CLOUDY    53  50  89 CALM      29.81S
$$

MAZ007-012-024-CTZ003-RIZ002-NYZ038-NYZ072-270500-
SOUTHERN NEW ENGLAND AND NY

CITY           SKY/WX    TMP DP  RH WIND       PRES   REMARKS
BOSTON         CLOUDY    55  53  93 NW5       29.75S
WORCESTER      CLOUDY    53  48  83 NW14      29.75R
NANTUCKET      CLOUDY   N/A N/A N/A E3        29.73R
PROVIDENCE     MOCLDY    56  55  97 CALM      29.75R
HARTFORD       CLOUDY    59  52  77 NW10      29.77R
ALBANY         DRIZZLE   55  51  86 NE5       29.81R
NEW YORK CITY  PTCLDY    65  53  65 NW12      29.80R
$$

ANZ081-ANZ082-ANZ150-NHZ014-MEZ023>029-270500-
COASTAL MARINE OBSERVATIONS

STATION/POSITION TIME  TEMP    WIND        PRES    WAVE
                       AIR SEA DIR/SP/G            HT/PER
                 (UTC) (F)     (DEG/KT/KT) (MB)    (FT/S)
MOUNT DESERT ROC 0400   46                 1004.3R
MATINICUS ROCK   0300   49     330/ 16/ 17 1004.1R
ISLE OF SHOALS   0300   53     310/  9/  9 1006.6R
JEFFREYS LEDGE   0306      47                N/A     4/ 8
CASHES LEDGE BUO 0350   48 47              1005.1R   4/11
GEORGES BANK BUO 0250   50 48              1002.9    9/11
$$

.............KEY..............
   WCI - WIND CHILL
   TC  - TEMPERATURE IN CELSIUS
   VSB - VISIBILITY IN MILES
   HX  - HEAT INDEX
   FAIR- INDICATES FEW OR NO CLOUDS BELOW 12,000 FT, WITH NO
         SIGNIFICANT WEATHER AND/OR OBSTRUCTIONS TO VISIBILITY.





USA.gov is the U.S. government's official web portal to all federal, state and local government web resources and services.